FW5146 Weather Reports


Display with metric or nautical units.
time (UTC)temp
F
wind
direction
speed
MPH
gust
MPH
rain 1hr
in
rain 24hr
in
rain mn
in
humidity
%
barometer
mb
20260502151600 46 225 0.0 1.0 0.00 0.00 0.00 50 1026.3
20260502123745 26 360 0.0 0.0 0.00 0.00 0.00 85 1025.3
20260502122743 26 360 0.0 0.0 0.00 0.00 0.00 85 1025.2
20260502121842 27 360 0.0 0.0 0.00 0.00 0.00 84 1025.2
20260502115844 27 360 0.0 0.0 0.00 0.00 0.00 83 1025.2
20260502114843 27 360 0.0 0.0 0.00 0.00 0.00 84 1025.2
20260502113843 28 360 0.0 0.0 0.00 0.00 0.00 84 1025.0
20260502112942 28 360 0.0 0.0 0.00 0.00 0.00 84 1025.0
20260502111042 28 360 0.0 0.0 0.00 0.00 0.00 84 1025.1
20260502105043 28 360 0.0 0.0 0.00 0.00 0.00 83 1025.0
20260502104141 29 360 0.0 0.0 0.00 0.00 0.00 82 1025.1
20260502104044 29 360 0.0 0.0 0.00 0.00 0.00 82 1025.1
20260502102142 29 360 0.0 0.0 0.00 0.00 0.00 82 1024.9
20260502101143 29 360 0.0 0.0 0.00 0.00 0.00 83 1024.8
20260502100143 29 360 0.0 0.0 0.00 0.00 0.00 82 1024.7
20260502091341 30 360 0.0 0.0 0.00 0.00 0.00 80 1024.6
20260502090345 31 360 0.0 0.0 0.00 0.00 0.00 80 1024.4
20260502070743 35 360 0.0 0.0 0.00 0.00 0.00 72 1024.5
20260502065743 35 360 0.0 0.0 0.00 0.00 0.00 71 1024.5
20260502065641 35 360 0.0 0.0 0.00 0.00 0.00 70 1024.7
20260502064644 36 360 0.0 0.0 0.00 0.00 0.00 68 1024.5
20260502062741 37 360 0.0 0.0 0.00 0.00 0.00 68 1024.4
20260502061742 37 360 0.0 0.0 0.00 0.00 0.00 66 1024.3
20260502060744 38 360 0.0 0.0 0.00 0.00 0.00 65 1024.3
20260502055828 38 360 0.0 0.0 0.00 0.00 0.00 65 1024.1
20260502055729 38 360 0.0 0.0 0.00 0.00 0.00 65 1024.1
20260502054730 39 360 0.0 0.0 0.00 0.00 0.00 63 1024.0
20260502053728 40 360 0.0 0.0 0.00 0.00 0.00 62 1024.1
20260502051728 41 360 0.0 0.0 0.00 0.00 0.00 59 1023.8
20260502050729 42 360 0.0 0.0 0.00 0.00 0.00 57 1023.8
20260502045728 43 360 0.0 0.0 0.00 0.00 0.00 55 1023.7
20260502045645 43 360 0.0 0.0 0.00 0.00 0.00 55 1023.7
20260502044728 44 360 0.0 0.0 0.00 0.00 0.00 52 1023.9
20260502043827 45 360 0.0 0.0 0.00 0.00 0.00 53 1023.8
20260502042828 45 360 1.0 1.0 0.00 0.00 0.00 52 1023.7
20260502040831 47 22 0.0 0.0 0.00 0.00 0.00 48 1023.5
20260502035928 48 22 0.0 0.0 0.00 0.00 0.00 46 1023.4
20260502034929 49 22 0.0 0.0 0.00 0.00 0.00 45 1023.3
20260502034028 50 22 2.0 2.0 0.00 0.00 0.00 44 1023.0
20260502033027 50 22 1.0 2.0 0.00 0.00 0.00 43 1023.0
20260502032029 51 22 1.0 2.0 0.00 0.00 0.00 43 1022.7
20260502031028 52 22 1.0 2.0 0.00 0.00 0.00 41 1022.6
20260502030127 53 22 2.0 4.0 0.00 0.00 0.00 39 1022.6
20260502025129 55 22 2.0 2.0 0.00 0.00 0.00 35 1022.4
20260502024128 57 349 0.0 4.0 0.00 0.00 0.00 33 1022.2
20260502022128 58 271 0.0 2.0 0.00 0.00 0.00 31 1022.1
20260502021127 58 8 1.0 2.0 0.00 0.00 0.00 31 1022.0
20260502020129 59 292 0.0 0.0 0.00 0.00 0.00 29 1021.8
20260502015128 61 292 0.0 2.0 0.00 0.00 0.00 29 1021.8
20260502015030 61 292 0.0 0.0 0.00 0.00 0.00 29 1021.8
20260502014029 62 272 0.0 3.0 0.00 0.00 0.00 28 1021.6
20260502012130 64 280 2.0 4.0 0.00 0.00 0.00 27 1021.6
20260502011130 64 269 0.0 2.0 0.00 0.00 0.00 27 1021.4
20260502010227 64 293 1.0 6.0 0.00 0.00 0.00 26 1021.5
20260502005227 64 273 2.0 5.0 0.00 0.00 0.00 26 1021.6
20260502004228 65 267 3.0 6.0 0.00 0.00 0.00 25 1021.4
20260502003327 65 251 2.0 8.0 0.00 0.00 0.00 26 1021.4
20260502002327 65 245 1.0 4.0 0.00 0.00 0.00 25 1021.4
20260502001328 65 274 2.0 7.0 0.00 0.00 0.00 26 1021.4
20260502000328 65 255 2.0 4.0 0.00 0.00 0.00 25 1021.4
20260501235328 66 296 2.0 7.0 0.00 0.00 0.00 26 1021.6
20260501234427 66 274 2.0 5.0 0.00 0.00 0.00 26 1021.5
20260501233428 66 211 1.0 3.0 0.00 0.00 0.00 25 1021.5
20260501232430 66 235 1.0 3.0 0.00 0.00 0.00 24 1021.4
20260501230428 67 249 2.0 4.0 0.00 0.00 0.00 25 1021.6
20260501225428 67 199 2.0 4.0 0.00 0.00 0.00 24 1021.4
20260501224429 67 270 2.0 7.0 0.00 0.00 0.00 24 1021.5
20260501223527 67 292 2.0 4.0 0.00 0.00 0.00 22 1021.7
20260501222626 68 240 2.0 6.0 0.00 0.00 0.00 23 1021.6
20260501221629 68 211 1.0 4.0 0.00 0.00 0.00 23 1021.8
20260501220628 68 228 2.0 4.0 0.00 0.00 0.00 21 1021.9
20260501215727 68 273 2.0 4.0 0.00 0.00 0.00 22 1022.0
20260501214728 68 199 2.0 4.0 0.00 0.00 0.00 20 1022.0
20260501211927 68 188 2.0 4.0 0.00 0.00 0.00 20 1022.3
20260501210929 66 112 0.0 0.0 0.00 0.00 0.00 19 1022.5
20260501204929 66 23 2.0 4.0 0.00 0.00 0.00 22 1022.7
20260501203929 66 100 0.0 2.0 0.00 0.00 0.00 22 1022.8
20260501202027 65 24 1.0 5.0 0.00 0.00 0.00 23 1023.0
20260501201927 65 24 1.0 3.0 0.00 0.00 0.00 23 1023.0
20260501201026 65 244 1.0 2.0 0.00 0.00 0.00 24 1022.9
20260501194027 64 177 1.0 3.0 0.00 0.00 0.00 24 1023.3
20260501193028 64 212 3.0 5.0 0.00 0.00 0.00 25 1023.4
20260501191128 63 219 3.0 5.0 0.00 0.00 0.00 26 1023.6
20260501185228 62 254 1.0 2.0 0.00 0.00 0.00 26 1023.9
20260501184228 62 285 0.0 2.0 0.00 0.00 0.00 24 1024.0
20260501184127 62 21 1.0 3.0 0.00 0.00 0.00 25 1024.1
20260501183127 62 202 2.0 3.0 0.00 0.00 0.00 25 1024.1
20260501182128 62 274 1.0 3.0 0.00 0.00 0.00 27 1024.3
20260501181127 61 250 0.0 1.0 0.00 0.00 0.00 27 1024.3
20260501180127 61 235 2.0 5.0 0.00 0.00 0.00 28 1024.5
20260501175128 60 202 0.0 2.0 0.00 0.00 0.00 28 1024.5
20260501174129 60 356 0.0 1.0 0.00 0.00 0.00 28 1024.7
20260501173127 60 282 0.0 3.0 0.00 0.00 0.00 30 1024.7
20260501172128 59 235 2.0 3.0 0.00 0.00 0.00 31 1024.8
20260501171128 57 247 0.0 0.0 0.00 0.00 0.00 34 1024.9
20260501170028 54 225 0.0 2.0 0.00 0.00 0.00 37 1025.1
20260501165029 54 33 1.0 3.0 0.00 0.00 0.00 41 1025.2
20260501164027 53 247 0.0 0.0 0.00 0.00 0.00 42 1025.2
20260501163028 53 360 1.0 3.0 0.00 0.00 0.00 43 1025.4
20260501162028 52 67 0.0 0.0 0.00 0.00 0.00 43 1025.5
20260501161027 51 165 1.0 4.0 0.00 0.00 0.00 43 1025.5
20260501160927 51 202 1.0 3.0 0.00 0.00 0.00 44 1025.5
20260501155928 50 154 0.0 0.0 0.00 0.00 0.00 46 1025.5
20260501154029 48 45 0.0 0.0 0.00 0.00 0.00 48 1025.5
20260501153027 47 202 0.0 0.0 0.00 0.00 0.00 52 1025.6
20260501152027 46 213 1.0 4.0 0.00 0.00 0.00 56 1025.7